STARLINK-34546, 64718

Orbit data source: Space-Track

STARLINK-34546, 64718 is a payload satellite owned by SpaceX/Seattle (US) in LEO that was launched on Sat, 28 Jun 2025 UTC via an FALCON 9 launch vehicle from the Air Force Western Test Range (AFWTR). Payload-class satellites include a variety of spacecraft equipped with specific instruments for various scientific and technological missions. These include communications satellites like Starlink; space stations such as the ISS; scientific satellites like the Hubble; Earth observation satellites from companies like Planet Labs, Umbra, and HawkEye 360; GPS; miniature CubeSats for education and research; and military/defense satellites.

Not visible in the next 10 days
Identifier
64718, 2025-142Y
Orbit
LEO
Last TLE update
8 hours ago
Origin
Manufacturer
SpaceX/Seattle
Mission
Operational spacecraft
Bus & Motor
STARLINK V2MO, Unknown motor
Mass
575 kg wet, ~530 kg dry
Launch date (UTC)
2025-06-28 (1 week ago)
Launch vehicle
FALCON 9
Launch site
Air Force Western Test Range (AFWTR)
Object type
Payload
Rocket body
Debris
Shape & HBR
Unknown
Radar Cross Section
RCS unknown

Expand to show TLE details & history

TLE from 8 hours ago
0 STARLINK-34546
1 64718U 25142Y   25186.58335648 -.01457193  58941-3 -50720-2 0  9992
2 64718  69.9948 231.2980 0003973 276.8889  81.7096 15.89221213  2296
Epoch: 2025-07-05T14:00Z
TLE epoch observation values (Epoch: 2025-07-05T14:00:01.999Z)
Latitude
-1.39697°
Longitude
96.96452°
Altitude
306.796 km
Speed
7.724 km/s
True Right ascension
15h 23m 10s
True Declination
-1° 23' 17"
Sunlit
Object was in full shadow at epoch
Visualization orbit readout
Latitude
68.00885°
Longitude
-147.18298°
Altitude
320.736 km
Speed
7.721 km/s
Apparent Right ascension
22h 19m 08s
Apparent Declination
16° 06' 38"
Sunlit
Object is in daylight
Visualization observer readout
Local Sidereal Time
09:54:54
Azimuth
353.001° N
Elevation
-33.69°
Doppler factor
1
Orbital elements
Apogee altitude
304.986 km
Perigee altitude
299.677 km
Semi-major axis
6,680.469 km
Eccentricity
0.0004
Inclination
69.9948°
RAAN
231.298°
Arg. of periapsis
276.8889°
True anomaly
Unknown
Mean anomaly
81.7096°
Eccentric anomaly
Unknown
Mean motion
3.97496 °/min
Orbital period
90.57 mins
BSTAR
-0.005072
Loading maneuver chart data...
Loading SW <> Apogee altitude chart data...
Loading historical data...
Loading historical data...
Loading historical data...
Loading historical data...
Loading historical data...
Loading historical data...
Loading historical data...

STARLINK-34546 Visibility

Observer location: undefined°, undefined°

STARLINK-34546 is likely not visible in the next few days
Span
Click to sort rows by Start time (UTC) header in descending order
Start Az.
Max El. time (UTC)
Max El. Az.
Max El.
End time (UTC)
End Az.
|